SXM-8

Last updated on Tue Sep 22 2026 00:03:15 GMT+0000 (Coordinated Universal Time)

1 48838U 21049A 26264.54349759 -.00000209 00000+0 00000+0 0 9993 2 48838 0.0351 42.1584 0005853 356.2127 72.5815 1.00272207 19552
UTC large
Height (km)
Speed (km/s)
/
Latitude / Longitude
Inclination (degrees)
Orbital Period (minutes)
Azimuth
Elevation
Range (km)
Doppler Factor

Next 0 passes for location: London (51.5072 / 0.1276)

No passes found over London.
SXM-8